Home   Weather   St. Petersburg   Past weeks

Flag for USA Past Weather in St. Petersburg, Florida, USA — Yesterday and Last 2 Weeks

Now
77 °F

Clear.


Feels Like: 78 °F
Forecast: 76 / 88 °F
Wind: No wind

Location: Whitted Airport

Current Time: Sep 27, 2016 at 6:29:00 AM

Latest Report: Sep 27, 2016 at 5:53 AM


Visibility: 10 mi

Pressure: 29.90 "Hg

Humidity: 88%

Dew Point: 73 °F

Location of St. PetersburgLocation

Past Weather in St. Petersburg — Graph

°F

St. Petersburg Temperature Yesterday

Maximum temperature yesterday: 87 °F (at 12:53 PM)
Minimum temperature yesterday: 77 °F (at 5:53 PM)
Average temperature yesterday: 81 °F

High & Low Weather Summary for the Past Weeks

 TemperatureHumidityPressure
High92 °F (Sep 17, 2:53 PM)94% (Sep 14, 2:53 AM)30.05 "Hg (Sep 14, 2:53 AM)
Low76 °F (Sep 25, 9:53 PM)44% (Sep 17, 2:53 PM)29.90 "Hg (Sep 27, 4:53 AM)
Average83 °F78%29.97 "Hg
* Reported Sep 12 4:53 AM — Sep 27 4:53 AM, St. Petersburg, Weather by CustomWeather, © 2016

Note: Actual official high and low records may vary slightly from our data, if they occured in-between our weather recording intervals... More about our weather records

Advertising

St. Petersburg Weather History for the Previous 24 Hours

Scroll right to see more
 ConditionsComfort  
Time TempWeatherWind HumidityBarometerVisibility
4:53 AM
Tue, Sep 27
77 °FClear.6 mph88%29.90 "Hg10 mi
3:53 AM78 °FClear.6 mph87%29.90 "Hg10 mi
2:53 AM78 °FClear.6 mph82%29.92 "Hg10 mi
1:53 AM80 °FThundershowers. Partly cloudy.No wind79%29.93 "Hg10 mi
12:53 AM79 °FPassing clouds.9 mph88%29.94 "Hg10 mi
11:53 PM
Mon, Sep 26
77 °FClear.5 mph85%29.96 "Hg10 mi
10:53 PM79 °FClear.5 mph79%29.96 "Hg10 mi
9:53 PM78 °FClear.No wind82%29.95 "Hg10 mi
8:53 PM77 °FClear.10 mph82%29.95 "Hg10 mi
7:53 PM78 °FClear.7 mph76%29.93 "Hg10 mi
6:53 PM79 °FSunny.No wind77%29.92 "Hg10 mi
5:53 PM77 °FThunderstorms. Cloudy.6 mph82%29.92 "Hg3 mi
5:01 PM83 °FMostly cloudy.15 mph72%29.92 "Hg10 mi
4:04 PM86 °FThundershowers. Sunny.No wind59%29.92 "Hg10 mi
3:53 PM86 °FSunny.7 mph59%29.91 "Hg10 mi
3:04 PM83 °FThunderstorms. Mostly cloudy.5 mph61%29.92 "Hg10 mi
2:53 PM81 °FThunderstorms. Partly sunny.16 mph65%29.93 "Hg10 mi
1:53 PM87 °FThundershowers. Passing clouds.8 mph63%29.93 "Hg10 mi
12:53 PM87 °FSunny.8 mph67%29.96 "Hg10 mi
11:53 AM86 °FSunny.10 mph70%29.97 "Hg10 mi
10:53 AM82 °FSunny.9 mph82%30.00 "Hg10 mi
9:53 AM82 °FSunny.9 mph82%29.99 "Hg10 mi
8:53 AM80 °FSunny.12 mph87%29.98 "Hg10 mi
7:53 AM79 °FSunny.12 mph88%29.98 "Hg10 mi
6:53 AM79 °FClear.10 mph88%29.96 "Hg10 mi
Weather by CustomWeather, © 2016

See weather overviewHow to use our weather pages